Tracking 19720 objects as of 26-Jun-2019
HD Live streaming from Space Station
objects crossing your sky now

SL-8 DEB

Track SL-8 DEB now!
10-day predictions


NORAD ID: 21958
Int'l Code: 1991-009CG
Perigee: 1,507.7 km
Apogee: 1,720.3 km
Inclination: 74.0 °
Period: 118.4 minutes
Semi major axis: 7984 km
RCS: 0.0969 m2 (small)
Launch date: February 12, 1991
Source: Commonwealth of Independent States (former USSR) (CIS)
Launch site: PLESETSK MISSILE AND SPACE COMPLEX (PKMTR)

Note: This is SATELLITE DEBRIS
aabbcc
Your satellite tracking list
Your tracking list is empty




NASA's NSSDC Master Catalog

Two Line Element Set (TLE):
1 21958U 91009CG  19176.42987418 -.00000094  00000-0 -78011-3 0  9996
2 21958  73.9618 170.6854 0133115 134.6341  17.3324 12.16719577256951
Source of the keplerian elements: AFSPC